This demonstration page uses our WeatherBlox Daily Observations layout. Learn more.

Left ArrowRight Arrow

41.55636, -103.73856

Hourly Observations for April 29, 2020

Temp ( °F °C ) Dew Point ( °F °C ) Humidity (%) Winds ( mph kmh ) Pressure ( in mb ) Visibility ( mi km ) Precip ( " mm )
6:58 pm 18:58 Clear 58 14.3 16 -8.7 20 20 N 24 39 30.11 1020 10 16 0.00 0.00
7:58 pm 19:58 Clear 54 12.3 13 -10.6 19 19 N 23 37 30.12 1020 10 16 0.00 0.00
8:58 pm 20:58 Clear 50 10.2 14 -10 23 23 N 13 20 30.17 1022 10 16 0.00 0.00
9:58 pm 21:58 Clear 50 10 14 -9.8 24 24 N 16 26 30.19 1023 10 16 0.00 0.00
10:58 pm 22:58 Clear 43 5.9 18 -7.9 37 37 WNW 6 9 30.26 1025 10 16 0.00 0.00
11:58 pm 23:58 Clear 35 1.5 20 -6.5 56 56 WSW 7 11 30.28 1025 10 16 0.00 0.00
12:58 am 00:58 Clear 38 3.1 21 -6.2 51 51 W 8 13 30.28 1025 10 16 0.00 0.00
1:58 am 01:58 Clear 40 4.2 20 -6.6 46 46 NW 12 19 30.27 1025 10 16 0.00 0.00
2:58 am 02:58 Clear 36 2.3 21 -6.1 54 54 WNW 9 15 30.29 1026 10 16 0.00 0.00
3:58 am 03:58 Clear 35 1.4 22 -5.8 59 59 WSW 7 11 30.28 1025 10 16 0.00 0.00
4:58 am 04:58 Clear 39 3.8 21 -6.2 48 48 WNW 8 13 30.29 1026 10 16 0.00 0.00
5:58 am 05:58 Sunny 33 0.3 22 -5.5 65 65 NW 3 6 30.32 1027 10 16 0.00 0.00
6:58 am 06:58 Sunny 35 1.5 23 -4.9 63 63 W 6 9 30.32 1027 10 16 0.00 0.00
7:58 am 07:58 Sunny 46 7.5 21 -5.9 38 38 NW 10 17 30.31 1026 10 16 0.00 0.00
8:58 am 08:58 Sunny 51 10.3 22 -5.3 33 33 NW 12 19 30.31 1026 10 16 0.00 0.00
9:58 am 09:58 Sunny 56 13.1 18 -7.8 23 23 NNW 10 17 30.29 1026 10 16 0.00 0.00
10:58 am 10:58 Sunny 58 14.7 19 -7.3 21 21 WNW 5 7 30.29 1026 10 16 0.00 0.00
11:58 am 11:58 Sunny 61 16.1 20 -6.7 20 20 NW 5 7 30.28 1025 10 16 0.00 0.00
12:58 pm 12:58 Sunny 64 18 19 -7.3 17 17 NNW 3 6 30.23 1024 10 16 0.00 0.00
1:58 pm 13:58 Sunny 66 18.7 19 -7 17 17 NW 6 9 30.20 1023 10 16 0.00 0.00
2:58 pm 14:58 Sunny 68 19.9 21 -6.2 17 17 NW 8 13 30.17 1022 10 16 0.00 0.00
3:58 pm 15:58 Sunny 69 20.3 20 -6.7 16 16 NNW 3 6 30.15 1021 10 16 0.00 0.00
4:58 pm 16:58 Sunny 69 20.5 22 -5.6 17 17 NNE 7 11 30.12 1020 10 16 0.00 0.00
5:58 pm 17:58 Sunny 69 20.8 22 -5.5 17 17 E 7 11 30.11 1020 10 16 0.00 0.00

Powered by AerisWeather